Theta_e
289 289 289 290 290 290 289 289 289 289 289 290 290 290 290 290 291 291 291 291 291 291 292 292 292 293 292 293 293 293 293 293 289 290 295 297 297 299 298 301 302 305 307
288 288 289 289 289 289 289 289 290 289 290 290 290 289 289 290 290 290 290 291 290 290 291 291 291 292 292 292 292 292 292 293 291 288 291 293 295 297 300 300 300 302 304
288 288 288 288 288 288 288 288 288 289 289 289 289 289 289 289 290 290 290 290 290 290 291 290 290 291 290 291 291 291 291 292 292 290 289 292 293 295 293 295 296 294 297
287 287 286 287 287 287 287 287 287 288 288 287 288 289 289 289 290 290 290 290 290 290 291 291 290 290 290 290 290 289 290 290 290 289 289 290 288 288 289 289 290 291 294
285 285 285 286 286 286 287 287 287 288 287 287 287 288 289 289 289 289 289 289 289 289 290 291 291 290 289 291 290 290 290 289 288 288 287 289 287 286 289 292 291 291 288
285 286 287 286 285 287 287 287 287 287 287 287 286 286 286 288 289 290 290 289 289 289 288 290 290 288 288 290 291 291 291 289 287 287 288 287 288 288 289 290 287 287 288
284 285 286 285 286 285 286 286 286 286 286 286 286 286 286 287 289 290 289 288 288 288 288 289 288 289 288 289 290 291 291 291 292 290 288 288 288 289 289 286 286 287 286
280 283 284 283 285 285 285 285 285 286 285 284 285 285 285 286 289 289 289 289 289 289 290 289 288 287 288 287 287 287 287 288 290 291 292 292 292 290 290 290 288 284 285
278 277 279 281 282 282 284 284 284 284 284 284 284 284 284 286 288 288 289 289 288 287 288 288 289 288 289 290 287 286 287 286 289 291 293 293 293 294 289 288 286 287 284
277 278 279 279 280 279 284 284 283 283 283 284 283 283 284 285 287 288 289 287 285 286 287 287 286 286 289 290 288 287 286 285 285 283 282 282 282 283 284 284 287 287 284
276 275 277 279 278 279 284 283 284 283 284 284 282 283 284 285 285 288 289 286 285 285 285 285 286 288 290 291 291 287 286 285 283 281 280 278 277 276 276 277 278 281 282
274 273 275 276 277 279 278 279 282 284 283 283 283 284 285 285 286 287 287 287 287 284 284 285 287 291 291 291 289 290 287 283 281 279 277 276 275 274 274 273 273 273 275
273 273 278 280 278 279 278 277 282 283 283 283 282 282 283 284 285 287 286 286 285 284 285 285 286 287 287 286 286 285 282 281 278 276 275 275 276 277 277 275 275 274 272
275 276 275 279 276 277 280 281 282 279 282 283 283 282 282 284 284 285 285 283 282 284 284 284 284 284 284 282 281 281 280 279 277 276 275 275 276 276 275 276 274 273 270
276 277 277 278 276 277 278 279 280 279 283 283 284 284 282 282 284 285 285 284 284 284 283 282 281 281 280 279 279 279 279 278 276 276 275 274 273 274 273 274 272 271 269
277 278 279 277 276 277 278 279 283 284 285 286 285 284 284 285 286 285 284 284 284 283 279 279 277 277 277 277 276 276 276 275 275 275 274 273 272 271 271 271 271 270 268
274 277 277 275 276 276 275 277 278 279 286 285 284 284 284 283 284 284 283 281 281 279 277 276 276 276 275 275 275 274 274 274 274 272 272 271 271 270 270 269 268 267 266
272 272 275 276 274 275 276 277 276 276 277 277 282 282 282 282 282 283 282 277 273 273 272 273 273 274 274 274 273 273 273 272 271 270 270 269 269 269 267 266 266 265 264
271 272 273 274 273 274 274 275 275 274 275 275 272 277 277 279 280 279 278 274 272 272 271 272 272 273 272 272 272 271 271 269 268 267 266 265 265 265 263 263 262 261 261
271 271 273 273 273 272 272 273 273 273 274 274 275 275 272 273 276 274 274 273 272 272 271 271 270 271 271 270 269 268 267 265 265 264 263 263 262 263 261 260 261 259 258
275 274 272 272 272 274 274 273 275 275 275 275 276 273 275 274 274 273 271 272 271 270 268 268 267 267 266 266 266 265 264 263 262 261 261 260 261 259 259 259 258 258 258
275 276 273 272 274 271 274 275 275 275 276 275 272 270 280 271 271 271 269 268 265 264 264 264 263 264 264 265 265 264 262 261 261 260 260 259 259 259 259 258 258 257 257
275 276 274 273 274 273 272 274 275 276 276 275 273 271 270 270 269 269 268 263 262 262 262 262 262 260 260 261 262 264 263 262 261 261 260 259 259 259 259 258 257 256 256
276 274 274 274 272 273 274 275 276 275 276 274 273 272 270 269 268 266 265 262 260 260 261 261 261 261 260 259 260 260 260 260 261 260 260 259 257 257 257 256 256 255 256
276 277 274 275 274 274 275 275 275 276 275 274 273 272 270 268 267 264 263 261 260 260 259 260 261 260 260 259 259 259 261 259 259 259 260 259 257 256 256 255 254 253 253
272 273 275 276 277 278 277 276 277 276 275 275 273 272 270 268 267 264 262 261 261 260 259 260 260 259 259 260 259 260 262 261 258 258 259 258 257 256 255 254 253 254 252
Wind_Speed
3 1 3 4 5 4 5 7 8 8 10 11 10 11 11 11 11 10 11 12 12 12 12 13 14 14 10 9 9 10 11 10 13 9 9 3 4 11 7 5 6 6 7
1 2 3 5 5 6 7 8 8 10 9 9 11 11 11 11 11 11 12 11 12 13 13 13 14 11 13 12 10 12 9 12 11 15 7 7 11 12 14 12 10 6 4
2 2 4 5 6 7 8 8 9 10 10 11 11 11 11 11 11 11 11 12 12 13 13 13 14 13 12 10 10 10 9 10 10 10 11 7 8 4 6 6 5 4 2
2 3 4 5 6 6 8 9 9 9 10 12 12 11 10 11 11 11 11 12 13 12 13 13 12 13 13 11 10 9 10 8 7 7 8 6 3 2 2 3 5 3 2
3 3 6 5 5 6 8 7 8 9 9 10 11 12 11 10 8 10 11 12 12 13 13 12 11 12 15 13 6 7 7 7 6 8 7 6 3 2 3 2 6 2 1
4 5 6 5 4 6 7 8 9 9 9 9 9 10 12 8 15 19 17 12 13 12 12 11 11 9 11 16 17 18 14 8 8 7 6 6 6 4 3 4 2 2 1
5 5 5 5 4 6 6 7 8 9 10 10 10 10 11 11 17 18 18 11 11 11 12 9 7 5 6 8 11 14 14 16 17 12 10 9 7 5 5 4 3 2 2
4 5 5 4 4 6 5 6 7 8 10 9 10 11 12 9 16 18 19 13 11 12 10 8 7 7 7 7 7 7 8 8 7 7 10 10 9 6 8 5 4 5 5
6 6 6 5 5 5 5 8 7 7 9 10 10 11 10 9 15 18 18 10 9 8 7 7 7 7 9 11 5 6 7 3 5 11 4 5 5 11 9 7 5 7 3
6 7 5 5 5 5 4 7 6 8 8 8 10 9 9 7 13 16 15 7 8 6 6 6 9 7 10 11 5 5 5 2 2 5 5 9 12 13 18 8 2 5 5
3 3 4 5 6 5 3 3 4 6 7 9 8 9 7 7 9 14 14 6 6 6 5 5 3 7 10 10 10 5 3 6 8 5 4 6 8 10 9 9 10 6 3
2 3 4 5 5 4 4 2 4 5 6 7 7 9 6 6 9 10 11 11 11 5 6 6 6 3 1 2 1 9 14 11 6 5 6 8 8 8 8 9 12 12 11
3 5 5 6 5 5 4 4 4 4 4 4 5 7 6 5 4 11 10 10 8 5 4 8 12 14 16 14 15 13 10 7 6 7 7 7 6 6 6 8 10 12 18
6 6 5 7 5 5 4 4 5 4 4 3 4 6 6 6 5 4 3 5 7 4 5 5 8 10 12 9 7 9 7 7 7 7 6 6 6 7 8 7 8 9 12
6 7 6 6 6 5 6 6 6 5 5 4 3 4 5 6 5 9 8 4 3 3 2 3 4 5 6 6 7 8 7 7 8 6 6 7 7 7 8 7 9 10 11
5 5 6 4 3 4 4 5 12 13 11 9 7 5 3 9 12 10 8 10 6 2 3 3 4 5 5 5 6 6 6 8 6 7 7 7 7 7 8 8 8 9 12
6 7 6 5 4 4 4 5 6 4 13 11 9 6 5 9 11 12 6 4 7 2 3 3 4 4 5 5 5 6 7 7 7 7 7 7 7 8 9 8 8 9 10
6 9 6 6 4 4 5 6 5 4 4 3 9 7 5 9 9 10 3 2 2 4 2 3 4 5 5 5 6 6 7 7 7 7 7 7 7 7 8 8 7 8 7
5 5 5 5 4 6 4 4 5 4 5 4 1 4 2 5 5 5 5 2 3 3 2 3 3 5 5 5 6 6 7 7 6 7 6 7 6 7 9 7 8 9 8
6 10 8 5 5 5 4 5 4 5 6 5 4 4 2 1 1 1 1 2 4 4 3 4 3 4 5 5 6 6 7 6 6 6 7 7 7 7 8 7 6 8 7
6 5 7 4 5 6 6 7 7 6 7 6 6 4 7 3 3 2 2 2 4 4 4 5 4 5 5 5 5 6 7 7 6 7 7 6 6 8 7 7 8 8 8
7 7 5 6 5 5 7 6 6 7 7 7 4 4 11 3 4 3 4 3 2 3 3 4 4 3 4 5 6 7 7 7 7 7 7 7 7 7 7 8 8 8 8
7 8 7 6 6 7 5 6 7 7 7 7 6 5 4 4 5 4 4 5 3 3 4 5 6 5 3 4 3 5 9 8 7 8 9 8 7 7 7 8 8 8 7
7 8 8 7 5 6 7 8 8 9 8 7 7 7 7 6 6 6 4 5 4 3 3 5 5 8 6 5 5 4 6 7 6 7 11 10 9 9 8 8 8 8 8
7 7 7 7 7 7 8 8 8 8 8 8 8 7 7 6 6 7 5 5 5 5 4 4 5 8 9 10 9 10 11 12 9 9 8 10 12 11 9 8 8 8 7
7 8 8 8 9 9 8 8 9 9 9 8 8 8 9 8 7 8 8 7 7 5 5 4 7 9 12 10 11 13 15 15 11 12 10 10 10 9 7 9 10 8 8
Wind_Direction
215 290 314 329 311 299 292 286 285 295 291 291 289 287 286 288 285 280 277 278 275 274 270 267 266 264 261 256 252 251 251 248 269 277 289 287 284 283 264 246 257 265 285
244 313 327 317 313 300 299 294 291 288 280 280 283 282 282 280 279 277 277 277 276 276 276 274 271 266 260 256 251 255 263 268 265 273 270 290 260 260 271 282 267 229 240
274 307 318 309 301 290 294 298 300 298 296 298 290 282 280 279 277 275 272 273 272 271 272 272 271 266 263 256 253 245 253 262 259 261 266 261 251 226 249 258 266 277 243
260 273 289 289 289 303 312 315 308 304 305 306 300 290 283 281 279 279 278 276 273 270 269 269 267 266 264 257 245 243 251 265 264 267 277 268 238 238 222 243 266 232 232
238 269 280 286 303 321 329 310 305 304 304 301 302 297 288 282 281 285 282 281 278 275 269 265 267 261 252 256 249 248 255 252 251 254 255 251 232 217 225 234 250 211 44
210 237 268 278 311 323 309 301 302 305 309 308 305 300 301 290 289 293 294 290 285 282 279 260 265 253 253 256 256 254 258 261 262 264 274 263 264 220 202 218 175 133 156
219 228 252 272 282 279 286 309 319 319 316 312 311 302 298 294 297 302 303 294 285 280 269 257 264 261 256 266 261 254 264 251 262 251 251 251 262 242 228 201 173 144 117
234 248 249 247 262 286 288 320 321 318 319 321 310 304 299 296 308 315 310 298 287 271 260 261 255 256 248 255 266 266 256 259 264 245 248 256 248 245 216 207 146 106 84
252 251 251 228 241 260 298 324 314 317 317 322 312 300 296 303 323 322 321 308 289 273 258 254 243 251 255 264 251 258 271 297 18 39 303 283 324 258 166 135 141 137 98
246 238 230 220 233 241 290 323 323 319 307 316 310 303 292 310 319 323 337 316 318 311 284 267 254 246 258 257 245 239 254 204 43 35 18 36 44 45 45 38 83 141 127
259 254 242 230 235 233 256 285 297 302 307 323 314 308 302 320 316 322 343 335 334 315 310 314 286 272 256 248 236 231 212 125 92 66 47 55 48 44 42 41 43 45 55
274 267 270 255 244 229 216 238 276 280 295 318 321 324 333 326 324 325 350 2 1 338 355 355 353 68 24 305 337 131 117 95 80 70 60 52 54 53 53 58 60 60 49
263 260 252 275 249 222 213 228 281 291 304 310 315 325 323 324 322 325 347 358 5 4 2 38 42 56 73 73 86 98 92 89 84 72 71 69 63 69 78 73 70 71 60
261 264 240 250 251 228 220 202 243 251 289 285 307 327 315 320 329 320 331 348 342 357 1 29 45 63 73 71 65 59 62 71 80 84 80 71 67 63 62 64 74 75 69
233 255 256 232 233 234 224 208 211 222 224 270 283 304 314 314 332 339 349 335 330 356 5 41 40 40 52 57 62 65 68 74 82 82 82 77 70 67 59 58 63 69 83
254 267 264 261 249 247 241 251 239 229 233 244 269 282 289 296 322 327 350 350 337 25 47 65 59 52 58 69 74 76 70 77 79 84 77 75 78 77 76 67 73 83 92
228 255 261 249 234 236 234 239 251 255 238 237 244 261 299 310 326 318 311 341 351 11 100 73 87 84 80 73 77 80 84 72 78 77 81 83 88 83 83 78 80 88 86
227 233 239 258 232 230 227 233 224 217 233 248 242 241 259 309 316 328 299 63 15 38 70 102 99 98 93 95 92 93 90 81 77 82 81 79 82 89 90 81 80 92 89
235 243 225 239 230 232 228 225 222 217 229 235 262 265 259 294 299 9 36 125 134 100 91 87 87 100 99 97 92 85 87 87 90 90 80 82 82 95 89 84 83 77 87
245 242 233 230 230 224 217 226 223 226 226 225 227 231 225 135 247 93 359 141 126 123 117 111 91 91 95 100 100 102 99 93 93 89 86 85 80 90 100 102 94 98 87
246 245 229 223 233 227 214 213 221 212 223 215 227 189 201 175 197 200 162 197 149 138 132 124 121 113 108 105 108 106 103 101 98 101 99 94 101 99 90 92 97 97 103
243 247 234 226 229 212 227 221 208 210 222 215 202 209 212 174 167 192 159 174 159 139 138 132 123 125 130 134 135 125 119 121 118 113 108 104 104 103 104 98 95 92 91
247 249 244 239 229 226 217 212 217 214 216 209 181 181 168 188 168 183 176 154 175 156 148 133 130 123 114 111 104 135 139 142 136 132 124 118 114 111 110 106 108 106 106
244 244 241 234 218 226 227 225 222 217 206 192 185 184 183 185 172 169 179 155 152 151 152 138 132 138 129 117 106 95 105 116 118 119 122 121 116 110 105 107 113 115 108
264 253 238 238 229 222 226 224 222 215 205 194 187 182 176 167 167 154 165 160 148 155 155 142 135 138 133 131 125 124 129 116 115 116 111 111 112 114 116 115 120 108 106
257 252 251 250 246 238 229 224 223 218 210 198 186 184 175 173 172 157 159 167 157 147 147 148 140 135 133 129 127 127 127 124 116 111 114 116 116 115 114 117 112 113 119